Weather History for Manchester, NH

Change the Weather History Date:

Saturday, February 9, 2013

  Actual Average Record
Temperature  
Mean Temperature 17 °F -  
Max Temperature 19 °F 31 °F 55 °F (1949)
Min Temperature 15 °F 7 °F -13 °F (1967)
Degree Days  
Heating Degree Days 48    
Moisture  
Dew Point 10 °F    
Average Humidity 73    
Maximum Humidity 88    
Minimum Humidity 47    
Precipitation  
Precipitation 0.39 in - - ()
Snow  
Snow 0.00 in - - ()
Snow Depth 20.00 in    
Sea Level Pressure  
Sea Level Pressure 29.86 in    
Wind  
Wind Speed 22 mph (NNW)    
Max Wind Speed 30 mph    
Max Gust Speed 44 mph    
Visibility 3 miles    
Events Fog , Snow    
Averages and records for this station are not official NWS values.
T = Trace of Precipitation, MM = Missing Value Source: NWS Daily Summary

Daily Weather History Graph

Daily Weather History Graph

Search for Another Location

Airport:

Trip Planner

Search our weather history database for the weather conditions in past years. The results will help you decide how hot, cold, wet, or windy it might be!

Date:

Astronomy

Feb. 09, 2013 Rise Set
Actual Time 6:50 AM EST 5:09 PM EST
Civil Twilight 6:21 AM EST 5:39 PM EST
Nautical Twilight 5:48 AM EST 6:12 PM EST
Astronomical Twilight 5:15 AM EST 6:45 PM EST
Moon 6:00 AM EST (2/9) 4:49 PM EST (2/9)
Length of Visible Light 11h 17m
Length of Day
10h 18m
Waning Crescent, 0% of the Moon is Illuminated
Feb 9
Waning Crescent
Feb 10
New
Feb 17
First Quarter
Feb 25
Full
Mar 4
Last Quarter

Hourly Weather History & Observations

Time (EST) Temp. Windchill Dew Point Humidity Pressure Visibility Wind Dir Wind Speed Gust Speed Precip Events Conditions
12:26 AM 15.8 °F -2.3 °F 12.2 °F 86% 29.71 in 0.5 mi North 23.0 mph 34.5 mph 0.00 in Fog , Snow Light Snow
12:53 AM 16.0 °F -1.3 °F 12.9 °F 88% 29.75 in 0.2 mi North 20.7 mph 40.3 mph 0.01 in Fog , Snow Snow
1:15 AM 15.8 °F -1.9 °F 12.2 °F 86% 29.67 in 0.5 mi North 21.9 mph - 0.01 in Fog , Snow Snow
1:53 AM 16.0 °F -1.3 °F 12.0 °F 84% 29.75 in 0.5 mi North 20.7 mph 28.8 mph 0.02 in Fog , Snow Snow
2:13 AM 15.8 °F -1.1 °F 12.2 °F 86% 29.69 in 0.2 mi North 19.6 mph 26.5 mph 0.00 in Fog , Snow Heavy Snow
2:37 AM 15.8 °F -4.4 °F 12.2 °F 86% 29.69 in 0.2 mi North 29.9 mph 36.8 mph 0.02 in Fog , Snow Heavy Snow
2:53 AM 16.0 °F -3.2 °F 12.0 °F 84% 29.75 in 0.2 mi North 26.5 mph 38.0 mph 0.04 in Fog , Snow Heavy Snow
3:53 AM 17.1 °F -0.6 °F 12.9 °F 84% 29.74 in 0.2 mi North 23.0 mph 35.7 mph 0.05 in Fog , Snow Heavy Snow
4:53 AM 19.0 °F 1.0 °F 15.1 °F 85% 29.73 in 0.2 mi North 26.5 mph 43.7 mph 0.07 in Fog , Snow Heavy Snow
5:17 AM 19.4 °F 2.8 °F 15.8 °F 86% 29.65 in 0.5 mi NNW 21.9 mph 33.4 mph 0.02 in Fog , Snow Snow
5:53 AM 19.0 °F 2.7 °F 16.0 °F 88% 29.71 in 0.5 mi NNW 20.7 mph 28.8 mph 0.04 in Fog , Snow Snow
6:09 AM 19.4 °F 3.2 °F 15.8 °F 86% 29.65 in 0.2 mi NNW 20.7 mph 27.6 mph 0.02 in Fog , Snow Snow
6:22 AM 19.4 °F 2.5 °F 15.8 °F 86% 29.66 in 0.5 mi NNW 23.0 mph 29.9 mph 0.03 in Fog , Snow Snow
6:53 AM 19.0 °F 5.0 °F 15.1 °F 85% 29.75 in 0.5 mi NNW 15.0 mph 24.2 mph 0.06 in Fog , Snow Snow
7:53 AM 17.1 °F 1.0 °F 12.9 °F 84% 29.78 in 0.5 mi NNW 18.4 mph 29.9 mph 0.03 in Fog , Snow Snow
8:53 AM 16.0 °F 0.1 °F 12.0 °F 84% 29.81 in 0.5 mi NNW 17.3 mph 28.8 mph 0.03 in Fog , Snow Snow
8:58 AM 15.8 °F -0.6 °F 12.2 °F 86% 29.75 in 0.2 mi NNW 18.4 mph 25.3 mph 0.00 in Fog , Snow Heavy Snow
9:19 AM 15.8 °F -1.9 °F 12.2 °F 86% 29.76 in 0.5 mi NNW 21.9 mph 32.2 mph 0.02 in Fog , Snow Snow
9:25 AM 15.8 °F 0.3 °F 12.2 °F 86% 29.76 in 0.2 mi NNW 16.1 mph 32.2 mph 0.02 in Fog , Snow Heavy Snow
9:53 AM 16.0 °F -0.4 °F 10.9 °F 81% 29.84 in 0.5 mi NNW 18.4 mph 31.1 mph 0.03 in Fog , Snow Snow
10:19 AM 15.8 °F -3.4 °F 10.4 °F 79% 29.79 in 0.2 mi NNW 26.5 mph 33.4 mph 0.00 in Fog , Snow Heavy Snow
10:43 AM 15.8 °F -0.6 °F 10.4 °F 79% 29.80 in 0.5 mi NNW 18.4 mph 34.5 mph 0.01 in Fog , Snow Snow
10:50 AM 15.8 °F -1.9 °F 10.4 °F 79% 29.80 in 0.8 mi NNW 21.9 mph 31.1 mph 0.01 in Snow Light Snow
10:53 AM 16.0 °F -1.3 °F 10.0 °F 77% 29.87 in 0.8 mi NNW 20.7 mph 31.1 mph 0.01 in Snow Light Snow
11:45 AM 17.6 °F 0.1 °F 8.6 °F 68% 29.82 in 1.0 mi NNW 23.0 mph 32.2 mph 0.00 in Snow Light Snow
11:53 AM 18.0 °F 0.2 °F 9.0 °F 68% 29.88 in 0.8 mi NNW 24.2 mph 35.7 mph 0.00 in Snow Light Snow
12:23 PM 17.6 °F -1.0 °F 8.6 °F 68% 29.83 in 0.5 mi NNW 26.5 mph 39.1 mph 0.00 in Snow Snow
12:31 PM 17.6 °F 1.3 °F 8.6 °F 68% 29.83 in 0.8 mi NNW 19.6 mph 38.0 mph 0.00 in Snow Light Snow
12:38 PM 17.6 °F 0.5 °F 8.6 °F 68% 29.83 in 1.0 mi NNW 21.9 mph 36.8 mph 0.00 in Snow Light Snow
12:43 PM 17.6 °F -1.3 °F 8.6 °F 68% 29.84 in 0.8 mi NNW 27.6 mph 39.1 mph 0.00 in Snow Light Snow
12:53 PM 18.0 °F 0.2 °F 9.0 °F 68% 29.91 in 0.5 mi NNW 24.2 mph 36.8 mph 0.00 in Snow Snow
1:37 PM 17.6 °F -0.3 °F 6.8 °F 63% 29.86 in 3.0 mi NNW 24.2 mph 36.8 mph 0.00 in Snow Blowing Snow
1:53 PM 19.0 °F 4.0 °F 6.1 °F 57% 29.94 in 10.0 mi NNW 17.3 mph 34.5 mph 0.00 in   Overcast
2:53 PM 19.0 °F 0.6 °F 8.1 °F 62% 29.98 in 10.0 mi NNW 27.6 mph 35.7 mph 0.00 in Snow Light Snow
3:53 PM 19.9 °F 2.5 °F 7.0 °F 57% 30.02 in 6.0 mi NNW 25.3 mph 38.0 mph 0.00 in Snow Blowing Snow
4:53 PM 19.9 °F 3.2 °F 7.0 °F 57% 30.05 in 10.0 mi NNW 23.0 mph 34.5 mph N/A   Mostly Cloudy
5:53 PM 19.0 °F 2.0 °F 6.1 °F 57% 30.10 in 10.0 mi NNW 23.0 mph 31.1 mph N/A   Partly Cloudy
6:53 PM 18.0 °F 1.3 °F 3.9 °F 54% 30.14 in 10.0 mi NNW 20.7 mph 34.5 mph N/A   Clear
7:53 PM 17.1 °F 0.1 °F 3.0 °F 54% 30.16 in 10.0 mi NNW 20.7 mph 26.5 mph N/A   Clear
8:53 PM 15.1 °F -2.5 °F 1.0 °F 54% 30.19 in 10.0 mi NW 20.7 mph 26.5 mph N/A   Clear
9:53 PM 15.1 °F 1.8 °F -0.0 °F 51% 30.21 in 10.0 mi NW 11.5 mph 21.9 mph N/A   Clear
10:53 PM 15.1 °F 1.1 °F -0.9 °F 49% 30.22 in 10.0 mi NNW 12.7 mph 19.6 mph N/A   Clear
11:53 PM 15.1 °F 2.5 °F -2.0 °F 47% 30.25 in 10.0 mi NW 10.4 mph - N/A   Clear